Temperature
15 16 16 16 13 11 12 13 13 13 13 14 14 14 13 13 14 14 14 14 14 14 14 14 13 13 13 14 14 14 14 14 14 14 14 14 14 14 14 14 15 14 14 14 14 14 14 14 14
15 15 15 15 11 12 12 12 12 13 13 14 14 14 13 13 13 14 14 14 14 14 14 13 13 13 13 13 14 14 14 14 14 14 14 14 14 14 14 14 14 14 14 14 14 14 14 14 14
15 15 15 11 11 12 13 12 12 12 13 13 13 13 13 12 13 13 14 14 13 13 13 13 13 13 13 13 13 14 14 13 13 14 14 14 14 14 14 14 14 14 14 14 14 14 14 14 14
14 15 13 10 11 11 12 12 11 12 13 13 12 12 12 12 12 13 13 13 13 13 13 13 13 13 13 13 13 13 13 13 13 13 14 14 14 14 14 14 14 14 14 14 14 13 13 13 13
14 14 10 10 10 10 10 11 12 11 11 12 12 11 11 12 12 12 13 13 13 13 13 13 12 12 12 12 13 13 13 13 13 13 13 13 13 13 13 13 13 13 13 13 13 13 13 13 13
14 10 10 10 10 10 10 11 11 11 10 11 11 10 11 12 12 12 12 12 12 12 12 12 12 12 12 12 12 12 12 13 13 13 13 13 13 13 13 13 13 13 13 13 13 13 13 13 13
12 8 9 10 10 10 10 11 10 10 9 10 10 10 11 12 11 11 12 12 12 12 12 12 12 12 12 12 12 12 12 12 13 13 13 13 13 13 13 13 13 13 13 13 13 13 13 13 12
12 8 9 8 9 10 10 10 10 10 9 10 10 9 10 11 11 11 11 11 11 11 11 11 11 11 11 11 12 12 12 12 12 12 12 12 12 12 12 12 12 13 12 12 12 12 12 12 12
11 8 8 8 9 9 9 9 9 9 9 9 9 9 9 10 10 10 10 10 10 10 10 11 11 11 11 11 11 11 11 12 12 12 12 12 12 12 12 12 12 12 12 12 12 12 12 12 12
10 7 8 8 8 8 8 8 8 8 7 8 8 9 9 10 10 10 10 10 10 10 10 10 10 10 10 10 11 11 11 11 11 12 12 12 12 12 12 11 12 12 12 12 12 12 12 12 11
7 7 7 8 8 8 8 7 7 7 6 7 7 8 9 9 9 9 9 9 10 10 10 9 9 10 10 10 10 10 10 11 11 11 11 11 11 11 11 11 11 11 11 11 11 11 11 11 11
6 6 7 7 8 7 7 7 6 6 6 7 7 8 8 8 9 9 9 9 9 9 9 9 9 9 9 9 10 10 10 10 10 11 11 11 11 11 11 11 11 11 11 11 11 11 11 11 11
6 6 6 6 7 6 6 5 5 5 6 7 7 7 7 8 8 8 8 8 8 8 9 9 9 9 9 9 9 9 9 9 10 10 10 10 10 11 10 10 10 10 10 10 10 10 10 10 10
5 5 6 6 6 6 5 4 4 4 5 6 6 6 7 7 7 7 7 7 7 8 8 8 8 8 8 8 9 9 9 9 9 9 10 10 10 10 10 10 10 10 10 10 10 10 10 10 10
6 5 5 5 5 5 5 4 3 4 4 5 5 5 6 6 6 6 6 7 7 7 7 8 8 8 8 8 8 8 8 8 9 9 9 9 9 9 9 9 9 9 9 9 9 9 9 9 9
5 5 5 5 4 4 5 4 3 4 4 4 4 4 5 5 5 5 6 6 6 6 6 7 7 7 8 8 8 8 8 8 8 8 9 9 9 9 9 9 9 9 9 9 9 9 9 9 9
3 4 4 4 4 3 4 3 2 3 3 2 3 3 4 4 4 5 5 5 6 6 6 6 6 7 7 7 7 7 7 7 8 8 8 8 8 8 8 8 8 8 8 8 8 8 8 8 8
3 3 3 3 3 3 2 2 2 2 2 1 2 2 2 3 3 4 4 5 5 5 5 6 6 6 6 6 6 7 7 7 7 7 7 7 8 8 8 8 8 8 8 8 8 8 8 8 8
3 3 3 3 2 2 1 1 1 1 1 0 0 1 1 2 3 3 3 4 4 5 5 5 5 6 6 6 6 6 6 7 7 7 7 7 7 7 7 7 7 7 7 7 7 7 7 7 7
3 3 2 2 2 2 0 0 0 -0 -0 -0 -0 0 1 1 2 3 3 3 4 4 4 4 5 5 5 5 5 6 6 6 6 6 6 6 6 6 6 6 7 7 7 7 7 7 7 7 7
2 2 2 1 1 1 0 1 0 -0 -0 -0 -0 0 0 1 1 2 3 3 3 3 4 4 4 4 4 4 5 5 5 5 5 5 5 5 5 5 6 6 6 6 6 6 6 6 6 6 6
2 2 1 1 0 -0 0 1 0 -1 -1 -1 -1 -1 -1 -0 0 1 2 2 2 3 3 3 3 3 3 4 4 4 4 4 5 5 5 5 5 5 5 5 5 5 5 5 6 6 6 6 6
1 1 0 0 -0 -1 -1 -1 -0 -1 -1 -1 -2 -1 -1 -1 -0 0 1 1 2 2 2 2 3 3 3 3 3 3 4 4 4 4 4 4 4 4 4 4 4 4 5 5 5 5 5 5 5
-0 -0 -1 -2 -2 -1 -2 -1 -1 -2 -1 -2 -2 -2 -1 -1 -1 -0 -0 0 1 1 2 2 2 2 2 2 3 3 3 3 3 3 3 3 3 3 3 3 4 4 4 4 4 4 5 5 5
-1 -1 -1 -1 -2 -1 -2 -2 -1 -2 -3 -3 -3 -2 -2 -1 -1 -1 -1 -0 0 1 1 1 1 1 2 2 2 2 2 2 2 2 2 2 3 3 3 3 3 3 3 3 3 4 4 4 4
-2 -1 -1 -1 -1 -2 -3 -3 -2 -3 -3 -3 -3 -2 -2 -2 -2 -2 -1 -1 -1 -0 -0 0 0 1 1 1 1 1 1 1 1 2 2 2 2 2 2 2 2 3 3 3 3 3 3 3 3
-2 -2 -2 -3 -4 -4 -3 -3 -3 -3 -4 -4 -3 -3 -3 -3 -2 -2 -2 -1 -1 -1 -1 -1 -0 -0 0 0 0 0 1 1 1 1 1 1 1 1 2 2 2 2 2 2 2 2 2 2 3
-2 -3 -4 -3 -3 -3 -3 -3 -2 -3 -3 -4 -4 -4 -3 -3 -3 -3 -2 -2 -2 -2 -1 -1 -1 -1 -1 -0 -0 -0 -0 0 0 0 0 1 1 1 1 1 1 1 1 2 2 2 2 2 2
-3 -3 -4 -4 -4 -3 -3 -2 -3 -3 -4 -5 -5 -4 -4 -4 -3 -3 -3 -3 -3 -2 -2 -2 -1 -1 -1 -1 -1 -1 -1 -1 -1 -1 -0 -0 -0 -0 0 0 0 1 1 1 1 1 1 1 1
-4 -4 -4 -3 -4 -5 -4 -3 -3 -5 -5 -5 -5 -4 -4 -3 -3 -3 -3 -3 -3 -3 -3 -2 -2 -2 -2 -2 -1 -1 -1 -1 -1 -1 -1 -1 -1 -1 -1 -0 -0 0 0 0 1 1 1 1 1
Wind_Speed
9 6 3 4 5 3 4 4 2 1 1 1 1 3 4 4 3 2 1 1 2 2 3 4 5 6 6 7 7 8 9 10 11 12 12 13 14 14 13 13 13 13 14 14 14 14 15 16 16
4 3 5 5 4 2 5 4 4 3 2 1 2 2 2 0 1 1 2 1 1 3 4 4 5 6 6 7 8 8 8 9 10 11 12 13 13 13 13 13 13 14 14 14 14 14 15 15 16
2 4 4 4 4 6 5 3 5 2 0 1 1 2 1 0 1 1 2 1 2 3 4 4 6 6 6 7 8 8 8 9 9 11 12 12 13 13 13 13 13 13 14 14 14 14 15 15 16
3 4 4 3 6 6 4 1 2 1 1 1 2 1 1 2 2 2 2 1 3 3 4 4 6 6 6 7 7 8 9 9 9 10 11 12 12 12 12 12 13 13 14 14 14 14 14 15 15
4 4 3 2 6 4 2 2 0 1 0 1 1 0 1 2 4 4 2 2 4 3 3 4 5 6 6 7 7 7 8 9 9 10 10 11 11 11 12 12 12 13 13 13 14 14 14 14 15
4 4 3 7 7 3 2 2 0 1 1 1 1 0 2 2 5 4 2 2 3 3 3 4 5 6 6 6 7 7 7 8 9 9 10 11 11 11 11 12 12 12 13 13 13 13 14 14 14
4 4 4 5 5 4 2 1 2 1 1 2 0 0 3 3 4 3 2 3 3 4 3 3 3 5 6 6 6 7 7 7 8 9 9 10 10 10 11 11 11 12 12 12 13 13 13 13 13
4 4 2 4 5 5 1 1 1 1 2 1 1 2 3 3 3 3 3 4 3 4 4 4 3 3 4 5 6 7 7 7 7 8 10 10 10 10 10 10 11 11 11 12 13 13 13 13 13
4 2 6 5 5 3 1 1 1 1 1 1 1 0 2 1 3 4 4 3 2 2 3 3 3 3 4 4 5 6 6 6 6 7 9 9 8 8 9 10 11 11 11 11 12 13 13 13 13
3 4 7 2 2 2 1 1 1 1 1 2 3 3 3 3 4 4 3 2 1 1 1 2 2 3 4 3 4 4 5 6 6 7 8 8 8 8 8 9 10 10 11 11 12 13 13 12 11
3 4 2 0 1 1 1 0 1 2 2 3 3 3 1 2 2 3 3 3 3 2 1 1 1 2 3 3 4 4 4 5 5 7 7 7 7 8 8 7 8 8 9 10 10 10 10 10 9
2 1 0 1 1 1 1 0 1 1 3 2 2 1 0 2 2 3 2 2 1 0 0 1 1 2 3 3 3 4 4 4 4 5 6 6 5 5 5 5 6 7 6 7 7 7 8 9 9
2 1 1 1 2 1 1 1 1 3 3 2 2 2 1 1 1 1 1 1 1 1 1 1 1 1 2 3 3 3 4 4 4 5 5 6 5 4 5 4 5 6 6 6 6 6 7 7 8
0 0 1 2 1 1 1 3 2 4 2 2 1 1 1 1 1 1 2 2 2 2 2 1 1 1 2 3 2 3 4 4 4 4 4 5 5 5 5 4 4 5 5 5 6 6 6 6 6
1 1 3 2 1 1 0 5 6 4 1 2 3 2 2 2 2 1 1 2 2 2 2 1 0 2 2 3 3 3 3 4 4 3 4 5 5 5 5 4 4 4 5 6 6 6 6 5 6
2 1 3 3 1 1 2 8 5 2 1 3 3 2 2 2 2 2 3 2 2 2 2 2 1 1 1 2 2 3 3 4 3 3 4 4 5 6 5 4 3 4 5 6 5 4 4 4 4
2 2 5 4 1 1 2 6 3 2 1 3 3 3 2 3 4 3 3 3 2 1 1 1 0 0 1 1 2 4 4 4 3 4 3 3 4 5 5 4 4 5 5 4 4 3 3 4 4
3 3 4 4 2 1 4 7 5 3 2 3 4 3 3 4 5 4 3 3 3 2 1 1 0 0 1 1 2 3 3 3 3 3 3 3 3 4 5 5 5 5 4 3 4 4 3 4 4
2 3 5 4 2 2 6 8 7 4 3 4 4 4 4 4 5 4 3 3 3 3 2 1 1 1 0 1 1 1 2 1 1 2 2 3 3 4 4 4 5 4 4 4 5 4 5 4 4
1 3 4 4 3 2 5 8 6 3 2 3 4 4 4 5 6 6 5 4 4 3 3 1 1 1 1 1 2 1 2 2 1 2 2 3 3 3 4 4 3 4 4 5 5 5 3 3 3
2 3 4 4 5 3 4 7 4 2 2 2 2 3 3 3 4 6 5 4 4 4 3 2 1 1 1 1 1 1 2 1 1 1 1 1 2 2 3 4 4 4 5 5 5 5 5 4 2
4 3 3 3 2 4 2 5 5 3 3 4 4 3 4 4 4 4 5 5 4 4 3 2 2 1 0 2 2 2 2 2 2 2 2 1 2 2 2 3 4 3 4 4 5 5 4 6 5
3 3 2 1 1 3 1 3 7 2 4 5 5 4 4 4 4 4 5 5 5 4 3 2 2 2 1 1 3 3 2 1 1 1 2 2 1 2 2 3 3 3 3 4 4 4 4 5 5
1 3 3 3 2 3 4 4 6 3 4 4 3 4 4 4 4 4 5 5 5 5 4 3 3 2 1 1 1 3 3 2 1 2 2 1 1 1 1 2 3 3 2 4 4 5 5 4 4
3 4 4 5 2 5 2 4 7 5 3 3 3 4 4 4 3 4 5 6 6 6 5 4 3 3 2 1 1 1 4 4 3 3 3 2 1 1 2 2 2 2 3 3 4 4 5 5 5
2 4 4 4 5 5 2 6 6 4 3 3 3 3 3 4 4 4 5 5 5 5 4 3 3 3 3 1 1 1 1 3 3 3 3 3 3 2 2 3 3 3 3 4 4 3 4 4 5
3 2 3 3 1 4 6 6 7 4 4 3 3 3 4 5 5 4 4 5 5 5 4 2 2 3 3 2 1 1 1 1 2 3 3 3 2 2 2 2 2 2 3 4 5 3 4 4 4
2 4 4 3 2 5 6 5 5 6 6 4 3 4 5 5 5 5 4 4 4 4 4 3 2 2 3 2 1 1 2 1 1 2 2 2 2 2 2 2 2 3 3 4 4 4 4 4 4
2 2 3 3 3 4 5 6 4 6 4 4 4 4 4 5 5 4 4 4 4 4 4 4 3 3 3 3 2 2 2 2 2 2 2 2 2 3 3 3 4 4 4 4 4 5 5 5 4
4 5 5 4 5 4 4 8 3 3 3 3 4 4 5 5 4 4 4 4 4 4 4 4 4 4 4 3 3 2 2 2 2 2 2 2 2 2 3 3 4 4 4 4 5 6 6 6 6
Wind_Direction
342 353 45 54 60 57 231 233 211 230 244 242 150 135 151 154 161 186 316 95 65 123 145 148 132 120 118 117 116 113 112 115 117 115 113 112 109 108 107 105 102 99 97 96 96 97 96 93 92
342 14 52 63 109 205 253 234 210 212 200 74 38 65 100 162 30 14 343 332 70 120 134 139 134 124 117 122 120 115 119 117 121 120 117 115 113 111 109 107 103 100 98 97 95 98 98 96 94
18 50 85 93 153 198 220 218 209 214 324 93 59 36 120 280 338 293 299 300 93 110 117 134 136 128 123 123 126 124 122 120 124 123 119 117 116 114 112 109 105 103 100 98 98 98 100 99 97
71 56 63 107 215 221 214 240 196 162 360 51 113 347 324 17 335 309 335 95 115 107 113 134 136 131 128 125 123 128 126 125 128 128 123 120 118 117 114 110 108 105 103 101 101 100 100 100 100
61 86 99 229 237 240 247 293 131 128 75 25 97 275 302 9 2 8 41 103 125 111 106 132 135 131 128 130 129 125 131 128 130 135 129 125 121 118 116 113 111 109 107 104 102 102 98 100 99
65 80 148 225 236 242 250 281 25 48 316 17 84 222 264 9 11 3 43 94 101 106 95 127 139 133 130 129 130 130 125 130 130 136 137 130 124 119 115 114 114 111 110 108 106 104 101 99 101
117 124 194 215 234 245 230 183 172 197 244 284 176 146 294 351 360 7 47 69 74 80 78 79 119 132 135 133 133 132 127 122 130 134 136 131 125 122 118 116 116 115 111 110 109 107 105 100 101
124 123 188 216 220 242 214 102 69 196 224 325 105 158 277 316 11 45 62 66 69 65 64 55 70 104 118 129 138 131 126 122 121 130 132 130 127 126 121 117 116 116 113 111 111 109 106 103 101
94 117 220 215 204 228 131 108 360 7 91 38 52 292 308 53 73 78 61 55 59 45 34 45 54 66 95 117 131 131 127 122 117 113 121 120 116 115 115 115 116 114 112 112 112 108 104 101 99
105 197 228 215 189 168 134 147 192 57 344 305 332 353 29 87 109 118 122 138 151 234 338 30 51 60 79 98 111 116 116 114 108 104 107 112 113 113 111 111 109 107 105 105 104 103 98 93 91
137 197 219 304 22 113 116 39 1 163 250 257 272 304 19 88 116 151 184 195 200 208 221 1 52 80 93 86 97 94 98 100 102 103 106 108 106 105 103 100 98 96 97 92 94 92 91 92 91
133 273 11 341 23 53 129 135 345 246 244 296 283 278 146 150 181 197 214 239 225 215 249 311 68 93 97 101 101 94 90 91 94 104 110 111 102 95 99 98 98 92 92 93 91 89 90 92 92
208 257 7 32 63 65 49 340 251 273 286 329 13 44 96 178 228 241 256 315 328 286 282 309 47 111 113 106 107 102 95 100 105 113 118 121 116 108 103 105 101 99 99 101 98 97 96 92 89
168 19 313 328 326 295 201 275 275 280 320 338 350 344 315 322 304 354 8 349 327 312 307 303 1 95 116 119 119 115 114 115 110 110 118 124 124 121 117 108 103 105 109 109 107 105 103 95 93
75 10 330 313 291 270 205 292 258 269 318 326 313 319 343 347 358 343 308 304 305 314 328 327 294 45 111 126 123 114 118 120 113 113 116 123 127 127 123 118 110 111 115 110 102 97 97 94 91
49 23 284 304 7 309 182 261 284 300 260 288 290 309 337 336 336 332 334 331 325 340 335 316 2 30 66 117 120 102 107 111 108 111 111 123 130 136 131 124 121 121 116 114 112 111 112 107 102
30 261 257 287 350 4 198 257 297 325 304 294 304 306 318 327 334 333 330 324 327 320 319 303 329 36 39 63 109 103 99 96 100 105 112 122 130 137 140 133 128 128 117 111 125 119 128 124 108
251 252 260 263 318 335 250 259 287 316 331 301 309 316 326 323 314 325 334 330 330 320 302 286 283 31 45 67 84 99 92 81 81 90 98 113 126 133 135 129 127 132 126 126 132 136 122 125 120
233 248 271 274 304 292 262 273 285 292 316 313 306 308 313 314 329 348 359 360 359 4 350 319 359 2 88 157 151 171 182 173 103 65 85 108 119 127 127 126 129 134 146 148 138 135 131 119 123
310 288 291 306 327 277 278 276 274 271 267 280 282 292 309 331 346 349 358 7 5 359 353 346 313 261 219 202 190 194 192 179 157 89 75 95 110 130 137 127 143 143 147 145 143 138 144 135 142
283 254 276 290 328 332 313 293 271 282 264 308 302 300 320 321 328 337 347 353 358 355 348 335 320 275 232 168 111 94 83 85 80 109 101 69 111 125 134 139 143 144 150 163 163 161 155 161 174
272 286 278 285 324 303 357 295 283 282 300 312 307 317 314 319 323 335 343 350 347 336 340 348 341 349 240 158 140 139 149 182 204 196 179 104 110 119 131 144 141 145 149 164 173 165 166 164 173
247 323 312 269 208 302 299 248 288 315 293 293 293 296 313 325 333 337 342 344 348 345 349 359 6 4 23 113 167 165 167 190 180 142 144 150 112 119 134 139 136 145 153 163 171 167 170 173 173
329 27 35 43 81 276 235 203 280 252 252 288 300 309 315 325 339 346 350 355 357 359 7 12 18 3 9 41 142 179 176 178 150 148 161 177 173 132 127 146 143 157 160 171 178 175 179 183 175
52 67 9 348 341 257 226 209 253 255 245 235 265 294 321 331 341 350 354 357 355 356 358 4 12 358 356 20 32 221 199 192 193 195 190 189 196 224 195 172 180 184 179 179 175 177 188 184 182
198 142 165 229 254 286 290 239 255 261 265 265 268 286 327 335 337 342 345 346 347 347 347 355 355 352 351 350 322 329 240 209 208 210 199 198 206 213 209 188 192 195 183 183 175 182 196 188 191
146 189 174 148 269 280 271 284 297 294 300 302 312 323 317 317 322 327 337 342 342 341 336 325 337 342 347 335 328 322 324 257 223 214 203 194 196 206 196 199 194 194 186 188 177 183 195 187 193
152 151 116 147 225 268 284 274 265 278 276 292 306 306 307 316 319 322 329 334 337 335 334 335 337 330 329 331 315 316 302 308 269 225 219 207 204 200 190 200 200 198 191 191 181 184 190 184 192
147 151 160 165 186 205 270 268 235 237 242 248 264 286 296 303 305 314 323 329 333 345 350 349 343 343 339 335 321 319 322 325 316 262 244 226 219 209 201 205 205 204 200 194 192 193 191 191 194
185 192 169 187 237 213 235 267 266 230 242 247 272 294 299 300 305 312 320 329 338 348 352 351 346 340 332 329 326 319 321 322 308 299 277 247 229 223 218 206 203 205 203 199 197 201 200 197 199
Height
1501 1502 1504 1507 1511 1520 1520 1515 1512 1511 1511 1510 1510 1510 1511 1513 1516 1520 1515 1513 1514 1516 1519 1521 1523 1524 1525 1527 1528 1529 1531 1532 1533 1534 1536 1536 1537 1538 1539 1540 1541 1542 1542 1543 1544 1545 1545 1546 1547
1501 1503 1506 1506 1516 1524 1519 1513 1511 1510 1509 1509 1509 1510 1510 1512 1513 1513 1512 1513 1514 1516 1518 1520 1522 1524 1525 1527 1528 1529 1531 1532 1533 1535 1536 1537 1538 1538 1540 1540 1541 1542 1543 1544 1544 1545 1546 1547 1548
1501 1503 1505 1509 1517 1518 1513 1510 1509 1508 1508 1509 1510 1510 1511 1512 1512 1512 1512 1513 1514 1516 1518 1520 1522 1524 1525 1526 1528 1529 1530 1532 1533 1535 1536 1537 1538 1539 1540 1541 1542 1542 1543 1544 1545 1546 1547 1548 1549
1501 1504 1506 1512 1514 1512 1510 1508 1507 1508 1508 1509 1510 1511 1511 1513 1512 1512 1512 1513 1514 1516 1518 1519 1521 1523 1525 1526 1527 1529 1530 1532 1533 1535 1536 1537 1538 1539 1540 1541 1542 1543 1544 1545 1546 1547 1548 1549 1550
1501 1502 1510 1515 1511 1509 1508 1508 1507 1508 1508 1509 1510 1511 1511 1512 1512 1512 1512 1513 1514 1515 1517 1519 1521 1522 1524 1526 1527 1528 1529 1531 1533 1534 1536 1537 1538 1539 1540 1541 1542 1543 1544 1545 1546 1547 1548 1549 1551
1501 1502 1513 1513 1509 1508 1507 1507 1508 1508 1509 1509 1510 1510 1510 1511 1511 1511 1512 1513 1514 1515 1516 1518 1520 1522 1523 1525 1526 1528 1529 1530 1532 1533 1535 1536 1537 1539 1540 1541 1542 1543 1544 1545 1547 1548 1549 1550 1551
1501 1506 1510 1510 1509 1507 1507 1507 1508 1508 1509 1510 1510 1511 1510 1510 1510 1511 1511 1512 1514 1515 1516 1517 1519 1521 1522 1524 1525 1527 1528 1529 1531 1532 1534 1535 1537 1538 1540 1541 1542 1543 1544 1546 1547 1548 1549 1551 1552
1499 1505 1509 1510 1508 1506 1506 1506 1507 1508 1509 1510 1510 1511 1510 1510 1510 1510 1511 1512 1513 1514 1515 1516 1518 1519 1521 1522 1524 1526 1527 1529 1530 1532 1533 1535 1536 1538 1539 1540 1542 1543 1544 1546 1547 1548 1549 1551 1552
1499 1508 1508 1507 1507 1506 1505 1506 1507 1508 1508 1509 1509 1510 1511 1510 1509 1510 1510 1511 1512 1513 1514 1515 1517 1518 1519 1521 1522 1525 1526 1527 1529 1530 1532 1534 1535 1537 1538 1540 1541 1543 1544 1546 1547 1548 1549 1551 1553
1499 1506 1503 1503 1504 1504 1505 1506 1507 1508 1508 1508 1508 1508 1509 1508 1508 1508 1508 1508 1509 1510 1512 1513 1515 1516 1518 1519 1521 1523 1524 1526 1527 1529 1530 1532 1534 1536 1537 1539 1541 1542 1544 1545 1547 1548 1550 1551 1553
1499 1503 1502 1503 1503 1503 1505 1506 1507 1507 1508 1508 1507 1507 1506 1506 1507 1507 1507 1507 1507 1509 1510 1512 1513 1515 1516 1518 1519 1521 1522 1524 1526 1527 1529 1530 1533 1534 1536 1538 1540 1541 1543 1545 1546 1548 1549 1551 1553
1501 1502 1502 1503 1503 1504 1505 1506 1507 1506 1507 1507 1507 1506 1505 1505 1505 1505 1506 1506 1507 1507 1508 1510 1511 1513 1514 1516 1517 1519 1520 1522 1523 1525 1527 1529 1530 1533 1534 1536 1538 1540 1542 1543 1545 1547 1549 1550 1552
1501 1502 1503 1504 1503 1504 1504 1505 1506 1505 1505 1505 1505 1504 1504 1503 1504 1504 1505 1505 1505 1506 1507 1508 1509 1510 1512 1514 1515 1517 1518 1520 1521 1523 1525 1527 1529 1530 1533 1535 1537 1538 1540 1542 1544 1546 1548 1550 1551
1501 1502 1503 1503 1503 1504 1504 1505 1505 1503 1504 1503 1503 1502 1502 1502 1502 1502 1502 1503 1503 1504 1505 1506 1507 1508 1510 1511 1513 1514 1516 1518 1519 1521 1523 1525 1527 1528 1531 1533 1535 1536 1538 1541 1543 1545 1546 1548 1550
1502 1504 1503 1503 1503 1504 1504 1504 1503 1502 1503 1502 1501 1501 1501 1500 1500 1500 1500 1501 1501 1502 1503 1504 1505 1506 1508 1509 1511 1512 1514 1515 1517 1519 1520 1523 1525 1526 1528 1530 1532 1534 1536 1539 1541 1543 1545 1547 1549
1503 1505 1506 1503 1503 1503 1507 1503 1502 1501 1501 1500 1499 1499 1499 1499 1498 1498 1499 1499 1499 1500 1500 1501 1503 1504 1505 1507 1508 1509 1511 1513 1515 1517 1519 1521 1522 1524 1526 1528 1530 1532 1534 1536 1538 1540 1543 1545 1547
1507 1509 1506 1505 1504 1504 1505 1503 1502 1501 1500 1499 1498 1498 1497 1496 1496 1496 1497 1497 1497 1497 1498 1498 1499 1500 1502 1504 1505 1507 1509 1511 1512 1514 1516 1517 1519 1521 1524 1525 1527 1529 1531 1533 1535 1538 1540 1542 1545
1510 1509 1506 1506 1505 1505 1505 1503 1501 1500 1499 1498 1497 1496 1495 1494 1494 1494 1494 1494 1494 1495 1495 1496 1496 1498 1499 1501 1503 1504 1506 1508 1510 1511 1512 1514 1516 1518 1520 1522 1524 1526 1528 1530 1532 1535 1538 1540 1542
1508 1508 1508 1506 1505 1506 1505 1502 1500 1499 1498 1496 1495 1494 1493 1493 1493 1492 1492 1491 1491 1491 1492 1493 1493 1494 1496 1497 1498 1500 1502 1504 1506 1508 1509 1511 1513 1515 1517 1518 1520 1522 1525 1527 1529 1532 1534 1537 1539
1507 1508 1509 1507 1505 1505 1505 1501 1498 1496 1496 1495 1494 1493 1492 1491 1490 1489 1489 1489 1489 1488 1489 1489 1491 1492 1493 1494 1495 1497 1499 1501 1502 1504 1506 1508 1510 1512 1514 1515 1517 1519 1521 1524 1526 1528 1530 1533 1536
1508 1510 1510 1509 1508 1506 1506 1499 1496 1495 1494 1493 1492 1491 1490 1489 1488 1487 1487 1487 1486 1486 1486 1487 1488 1489 1490 1491 1493 1495 1496 1497 1499 1500 1502 1504 1506 1508 1510 1512 1514 1516 1517 1519 1522 1524 1526 1528 1532
1509 1508 1508 1508 1512 1512 1510 1507 1496 1495 1493 1491 1490 1489 1488 1487 1486 1485 1485 1484 1485 1485 1485 1485 1485 1486 1488 1488 1489 1490 1491 1493 1494 1496 1498 1500 1502 1504 1507 1509 1511 1512 1514 1516 1518 1521 1523 1525 1528
1510 1509 1509 1509 1512 1516 1514 1513 1499 1496 1493 1490 1489 1488 1487 1486 1485 1484 1484 1483 1484 1484 1483 1483 1483 1483 1484 1485 1486 1487 1488 1489 1492 1493 1494 1496 1499 1501 1503 1505 1507 1508 1510 1512 1515 1517 1519 1521 1524
1510 1511 1512 1515 1516 1518 1514 1515 1502 1497 1492 1490 1489 1487 1486 1485 1484 1483 1483 1482 1482 1482 1481 1481 1481 1481 1481 1482 1483 1483 1484 1486 1488 1489 1490 1492 1494 1496 1499 1501 1502 1505 1506 1509 1511 1513 1515 1517 1520
1512 1517 1522 1522 1524 1517 1512 1511 1501 1492 1490 1489 1488 1487 1486 1485 1483 1482 1481 1480 1480 1480 1479 1479 1479 1479 1479 1479 1480 1481 1482 1483 1484 1485 1487 1488 1490 1491 1494 1496 1498 1500 1502 1505 1507 1509 1511 1513 1516
1515 1517 1523 1524 1523 1517 1514 1510 1496 1490 1488 1487 1486 1485 1484 1483 1482 1481 1481 1480 1479 1478 1478 1477 1477 1477 1477 1477 1477 1478 1479 1480 1481 1482 1483 1484 1486 1488 1490 1492 1494 1496 1498 1501 1503 1505 1507 1509 1511
1515 1519 1519 1526 1530 1529 1515 1507 1495 1488 1486 1485 1484 1483 1482 1482 1481 1480 1479 1478 1477 1476 1476 1475 1475 1474 1474 1474 1474 1474 1475 1476 1477 1478 1480 1481 1482 1484 1486 1487 1489 1491 1493 1496 1498 1500 1502 1504 1507
1513 1516 1523 1524 1524 1522 1512 1508 1497 1488 1485 1484 1484 1482 1481 1481 1480 1479 1478 1477 1476 1475 1474 1473 1473 1472 1472 1472 1472 1472 1473 1473 1474 1475 1476 1477 1479 1480 1481 1483 1484 1487 1489 1491 1493 1495 1498 1500 1502
1515 1518 1518 1522 1522 1521 1517 1501 1487 1485 1483 1484 1482 1482 1481 1480 1478 1477 1476 1475 1474 1473 1472 1471 1470 1470 1469 1469 1469 1469 1469 1470 1470 1471 1472 1473 1474 1475 1476 1478 1480 1481 1483 1486 1488 1490 1492 1495 1497
1512 1513 1516 1517 1519 1523 1518 1499 1482 1482 1481 1481 1480 1480 1479 1478 1477 1475 1474 1473 1472 1470 1470 1469 1468 1467 1467 1467 1467 1467 1467 1467 1467 1467 1468 1469 1470 1470 1471 1473 1475 1476 1478 1481 1483 1485 1487 1489 1491